Location: Mexico
(19.4000°N, 99.1500°W)
Time: 05:02:42
(UTC-06:00)

ISS - Pass Details

Date: 16 March 2019
Orbit: 408 x 411 km, 51.6° (Epoch: 24 March)

Event Time Altitude Azimuth Distance (km) Brightness Sun altitude
Rises 20:27:36 0° 214° (SW) 2,319 0.4 -24.6°
Reaches altitude 10° 20:29:41 10° 212° (SSW) 1,460 -0.7 -25.1°
Enters shadow 20:29:52 11° 212° (SSW) 1,385 -0.9 -25.1°
